Current weather by "City, St" or "zip code"  
 

Current Conditions: ALBANY

Mostly Cloudy


63.0 F

Last Updated on May 26 2024, 03:51 AM EDT
Humidity: 84%
Wind Speed: NW 3.4 mph
Barometer 29.86 in
Dewpoint: 57.9 F
Visibility: 10.00 mi
Precip: --
Heat Index: NA
Wind Chill: NA
Current conditions at:

ALBANY (KALB)

Lat: 42.75 Lon: 73.8

active severe weather and emergency alerts image image weather storm and storm spotter reports image weather observation monitoring service image
Active
Alerts
Storm Reports Obs
Monitoring

Sign-up For Email & Text Message Weather Alert Notification Services



Advertise Here

Observation History for ALBANY


Time Wind
(mph)
Vis
(mi)
Weather Precip (in) Temperature (F) Relative
Humidity
Wind
Chill
(F)
Heat
Index
(F)
Pressure
Air Dwpt altimeter
(in)
sea level
(mb)
Rmks
03:51 AM EDT NW 3.4 10.00 Mostly Cloudy -- 63.0 57.9 84% NA NA 29.86 1011.2
02:51 AM EDT 0.0 10.00 Mostly Cloudy -- 64.9 57.9 78% NA NA 29.86 1011.2
01:51 AM EDT 0.0 10.00 Mostly Cloudy -- 66.0 57.9 75% NA NA 29.85 1010.8
12:51 AM EDT 0.0 10.00 Cloudy -- 66.9 55.9 68% NA NA 29.86 1011.2
11:51 PM EDT NW 4.7 10.00 Cloudy Trace 66.0 57.9 75% NA NA 29.86 1011.2
10:51 PM EDT 0.0 10.00 Light Rain Trace 68.0 55.9 65% NA NA 29.85 1010.8
09:51 PM EDT SW 6.9 10.00 Light Rain Trace 71.1 54.0 55% NA 70.5 29.85 1010.8
08:51 PM EDT 5.8 10.00 Cloudy -- 72.0 57.0 59% NA 71.6 29.84 1010.5
07:51 PM EDT 0.0 10.00 Mostly Cloudy -- 75.0 55.9 52% NA 74.7 29.83 1010.2
06:51 PM EDT 0.0 10.00 Mostly Cloudy -- 77.0 55.0 47% NA 76.6 29.82 1009.8
05:51 PM EDT 4.7 10.00 Mostly Cloudy -- 78.1 52.0 40% NA 77.5 29.82 1009.8
04:51 PM EDT E 5.8 10.00 Mostly Cloudy -- 77.0 51.1 40% NA 76.3 29.82 1009.8
03:51 PM EDT 0.0 10.00 Mostly Cloudy -- 80.1 51.1 36% NA 79.5 29.82 1009.8
02:51 PM EDT 3.4 10.00 Mostly Cloudy -- 78.1 48.9 36% NA 77.4 29.83 1010.2
01:51 PM EDT 4.7 10.00 Mostly Cloudy -- 77.0 48.9 37% NA 76.1 29.85 1010.8
11:51 AM EDT 3.4 10.00 Partly Cloudy -- 73.0 48.9 43% NA 72.0 29.90 1012.5
10:51 AM EDT 3.4 10.00 NULL -- 69.1 46.9 45% NA NA 29.92 1013.2
09:51 AM EDT 0.0 10.00 Partly Cloudy -- 66.0 44.1 45% NA NA 29.91 1012.9
08:51 AM EDT 5.8 10.00 Partly Cloudy -- 63.0 46.9 56% NA NA 29.92 1013.2
07:51 AM EDT 3.4 10.00 Mostly Clear -- 60.1 46.9 62% NA NA 29.92 1013.2
06:51 AM EDT 5.8 10.00 Mostly Cloudy -- 55.9 46.9 72% NA NA 29.91 1012.9
05:51 AM EDT 0.0 10.00 Partly Cloudy -- 52.0 44.1 74% NA NA 29.90 1012.5
04:51 AM EDT 3.4 10.00 Partly Cloudy -- 53.1 44.1 71% NA NA 29.89 1012.2
03:51 AM EDT 4.7 10.00 Partly Cloudy -- 55.0 44.1 66% NA NA 29.89 1012.2

Regional Weather Observation


ALBANY (KALB)

Mostly Cloudy
63.0 F

BENNINGTON (KDDH)

Mostly Cloudy
59.0 F

GLENS FALLS (KGFL)

Cloudy
60.1 F

NORTH ADAMS (KAQW)

Partly Cloudy
57.0 F

PITTSFIELD (KPSF)

Mostly Cloudy
57.0 F

RUTLAND STATE (KRUT)

Light Rain
59.0 F

Advertise Here


Advertise Here